Weather History for Gainesville, FL

Change the Weather History Date:

Saturday, June 21, 2014

  Actual Average Record
Temperature  
Mean Temperature 80 °F 80 °F  
Max Temperature 90 °F 90 °F 100 °F (1998)
Min Temperature 69 °F 70 °F 58 °F (1965)
Degree Days  
Heating Degree Days 0 0  
Month to date heating degree days 0 0  
Since 1 June heating degree days 0 0  
Since 1 July heating degree days 1098 1218  
Cooling Degree Days 15 15  
Month to date cooling degree days 277 299  
Year to date cooling degree days 778 809  
Since 1 June cooling degree days 277 299  
Growing Degree Days 28 (Base 50)    
Moisture  
Dew Point 70 °F    
Average Humidity 78    
Maximum Humidity 100    
Minimum Humidity 55    
Precipitation  
Precipitation 0.00 in 0.25 in 2.02 in (1892)
Month to date precipitation 4.08 4.69  
Year to date precipitation 24.62 20.68  
Snow  
Snow 0.00 in 0.00 in 0.00 in ()
Month to date snowfall 0.0 0.0  
Since 1 June snowfall 0.0 0.0  
Since 1 July snowfall 0.0 0.0  
Snow Depth 0.00 in    
Sea Level Pressure  
Sea Level Pressure 29.95 in    
Wind  
Wind Speed 9 mph (West)    
Max Wind Speed 23 mph    
Max Gust Speed 31 mph    
Visibility 10 miles    
Events Thunderstorm    
T = Trace of Precipitation, MM = Missing Value Source: NWS Daily Summary

Daily Weather History Graph

Daily Weather History Graph

Search for Another Location

Airport:

Trip Planner

Search our weather history database for the weather conditions in past years. The results will help you decide how hot, cold, wet, or windy it might be!

Date:

Astronomy

Jun. 21, 2014 Rise Set
Actual Time 6:29 AM EDT 8:32 PM EDT
Civil Twilight 6:01 AM EDT 8:59 PM EDT
Nautical Twilight 5:28 AM EDT 9:33 PM EDT
Astronomical Twilight 4:53 AM EDT 10:08 PM EDT
Moon 2:21 AM EDT (6/21) 3:27 PM EDT (6/21)
Length of Visible Light 14h 57m
Length of Day
14h 03m
Waning Crescent, 30% of the Moon is Illuminated
Jun 21
Waning Crescent
Jun 27
New
Jul 5
First Quarter
Jul 12
Full
Jul 18
Last Quarter

Hourly Weather History & Observations

Time (EDT) Temp. Heat Index Dew Point Humidity Pressure Visibility Wind Dir Wind Speed Gust Speed Precip Events Conditions
12:53 AM 70.0 °F - 68.0 °F 93% 29.99 in 10.0 mi Calm Calm - N/A   Clear
1:53 AM 70.0 °F - 69.1 °F 97% 29.97 in 9.0 mi Calm Calm - N/A   Clear
2:53 AM 69.1 °F - 68.0 °F 96% 29.96 in 9.0 mi Calm Calm - N/A   Clear
3:53 AM 70.0 °F - 69.1 °F 97% 29.95 in 10.0 mi Calm Calm - N/A   Clear
4:53 AM 70.0 °F - 68.0 °F 93% 29.94 in 10.0 mi WSW 3.5 mph - N/A   Clear
5:53 AM 72.0 °F - 71.1 °F 97% 29.95 in 10.0 mi West 6.9 mph - N/A   Clear
6:53 AM 72.0 °F - 71.1 °F 97% 29.96 in 10.0 mi WNW 5.8 mph - N/A   Clear
7:53 AM 75.0 °F - 72.0 °F 90% 29.98 in 10.0 mi WSW 3.5 mph - N/A   Clear
8:53 AM 78.1 °F - 72.0 °F 81% 29.99 in 10.0 mi West 5.8 mph - N/A   Partly Cloudy
9:53 AM 82.0 °F 86.7 °F 72.0 °F 71% 30.00 in 10.0 mi West 8.1 mph - N/A   Scattered Clouds
10:53 AM 84.9 °F 90.1 °F 71.1 °F 63% 30.00 in 10.0 mi WNW 10.4 mph - N/A   Scattered Clouds
11:53 AM 87.1 °F 92.8 °F 71.1 °F 59% 29.99 in 10.0 mi West 15.0 mph 23.0 mph N/A   Clear
12:53 PM 88.0 °F 93.8 °F 71.1 °F 57% 29.99 in 10.0 mi WNW 6.9 mph 19.6 mph N/A   Clear
1:53 PM 88.0 °F 92.9 °F 70.0 °F 55% 29.96 in 10.0 mi West 15.0 mph 23.0 mph N/A   Mostly Cloudy
2:16 PM 86.0 °F 92.2 °F 72.0 °F 63% 29.96 in 10.0 mi SW 17.3 mph 26.5 mph N/A   Mostly Cloudy
2:53 PM 86.0 °F 90.1 °F 69.1 °F 57% 29.94 in 10.0 mi SW 18.4 mph 27.6 mph N/A   Clear
3:53 PM 88.0 °F 93.8 °F 71.1 °F 57% 29.92 in 10.0 mi West 18.4 mph - N/A   Clear
4:53 PM 84.9 °F 87.6 °F 66.9 °F 55% 29.93 in 10.0 mi NW 12.7 mph 25.3 mph N/A   Clear
5:05 PM 84.0 °F 87.8 °F 69.1 °F 61% 29.93 in 10.0 mi North 8.1 mph 24.2 mph N/A Thunderstorm Clear
5:20 PM 82.0 °F 85.5 °F 69.1 °F 65% 29.92 in 10.0 mi NNW 9.2 mph 18.4 mph N/A   Clear
5:53 PM 84.0 °F 88.4 °F 70.0 °F 63% 29.90 in 10.0 mi WSW 10.4 mph - N/A   Clear
6:53 PM 84.9 °F 88.8 °F 69.1 °F 59% 29.90 in 10.0 mi SW 12.7 mph - N/A   Clear
7:53 PM 82.9 °F 87.5 °F 71.1 °F 67% 29.90 in 10.0 mi WSW 10.4 mph - N/A   Clear
8:53 PM 80.1 °F 83.8 °F 72.0 °F 76% 29.93 in 10.0 mi WSW 11.5 mph - N/A   Clear
9:53 PM 80.1 °F 83.8 °F 72.0 °F 76% 29.94 in 10.0 mi WSW 11.5 mph - N/A   Partly Cloudy
10:53 PM 79.0 °F - 73.0 °F 82% 29.94 in 10.0 mi WSW 10.4 mph - N/A   Mostly Cloudy
11:53 PM 77.0 °F - 73.0 °F 88% 29.93 in 10.0 mi WSW 10.4 mph - N/A   Clear